Regional Weather Roundup
Issued by NWS

Home | Current Version | Previous Version | Graphics & Text | Print | Product List | Glossary On
Versions: 1 2 3 4 5 6 7 8 9 10 11 12 13 14 15 16 17 18 19 20 21 22 23 24 25 26 27 28 29 30 31 32 33 34 35 36 37 38 39 40 41 42 43 44 45 46 47 48 49 50
000
ASUS45 KBOI 242110
RWRID
WEATHER ROUNDUP FOR IDAHO
NATIONAL WEATHER SERVICE BOISE ID
300 PM MDT THU JUL 24 2014

NOTE: "FAIR" INDICATES FEW OR NO CLOUDS BELOW 12000 FEET
WITH NO SIGNIFICANT WEATHER AND/OR OBSTRUCTIONS TO VISIBILITY

IDZ012-014-242200-
SOUTHWEST IDAHO


CITY           SKY/WX    TMP DP  RH WIND       PRES   REMARKS
BOISE          FAIR      71  32  23 VRB6      30.17F
CALDWELL       FAIR      72  37  28 N6        30.20F
MOUNTAIN HOME  FAIR      75  25  15 NW15G28   30.15F
$$

IDZ016-017-242200-
SOUTHCENTRAL IDAHO


CITY           SKY/WX    TMP DP  RH WIND       PRES   REMARKS
BURLEY         FAIR      72  43  35 W14G23    30.16F
JEROME         FAIR      74  39  28 W21G30    30.17F
TWIN FALLS     FAIR      76  39  26 W14G22    30.18F
$$

IDZ019>023-242200-
SOUTHEAST IDAHO


CITY           SKY/WX    TMP DP  RH WIND       PRES   REMARKS
IDAHO FALLS    SUNNY     82  33  17 SW25G37   30.10F
POCATELLO      SUNNY     80  38  22 W23G30    30.15F
REXBURG        SUNNY     81  35  19 SW23G38   30.07F
$$

IDZ006-010-011-018-031-032-242200-
CENTRAL IDAHO MOUNTAINS


CITY           SKY/WX    TMP DP  RH WIND       PRES   REMARKS
MCCALL         FAIR      66  25  21 VRB6      30.20F
HAILEY         SUNNY     75  30  19 S15       30.15S
STANLEY          N/A     67  14  13 W6        30.23S
SALMON         FAIR      79  32  18 SW16      30.00S
CHALLIS        FAIR      77  10   7 VRB5      30.09S
$$

IDZ002-004-006-007-026-242200-
NORTHERN IDAHO


CITY           SKY/WX    TMP DP  RH WIND       PRES   REMARKS
LEWISTON       FAIR      75  39  27 NW9       30.13S
LOWELL           N/A     76  40  27 VRB3      30.12F
COEUR D`ALENE  CLOUDY    63  43  48 W13G22    30.12R
MULLAN PASS    LGT RAIN  41  37  86 SW8G21    30.19S
$$


USA.gov is the U.S. government's official web portal to all federal, state and local government web resources and services.